Wind_Speed
71 70 62 60 49 47 53 36 22 13 16 30 33 37 20 23 19 17 20 16 12 15 22 25 30 29 32 29 35 34 27 31 35 33 32 31 32 32 30 32 27 22 23 24
65 61 55 53 52 50 30 25 15 14 19 35 31 31 26 26 22 21 17 12 15 15 20 26 27 33 31 35 35 26 27 31 32 29 30 30 31 29 29 26 23 24 26 24
43 37 48 48 40 36 33 27 21 16 23 36 34 30 27 25 25 19 14 14 14 15 19 24 24 34 32 35 25 24 26 27 28 28 28 29 29 26 26 27 24 25 25 22
39 32 35 35 36 37 37 30 26 24 31 35 40 36 31 28 25 17 13 15 13 10 11 15 21 26 28 23 21 23 24 27 27 27 28 29 26 26 26 25 24 22 21 19
40 39 41 42 37 38 37 30 29 28 32 40 40 43 19 29 15 13 10 7 6 9 16 22 21 18 21 19 20 23 24 24 27 26 27 26 22 23 23 22 22 20 18 12
49 46 43 40 39 40 36 34 36 37 38 47 35 37 15 15 11 13 7 5 8 12 20 23 19 18 18 20 19 20 22 24 25 25 23 18 20 21 22 20 17 17 13 9
56 57 53 47 47 46 45 43 44 44 47 51 27 34 9 21 16 15 10 3 6 12 18 24 20 17 15 18 16 19 20 21 22 21 16 18 19 19 20 14 14 14 14 6
49 56 56 55 52 48 45 42 49 51 49 43 29 29 15 19 22 11 8 3 6 12 16 25 18 16 14 13 15 17 19 18 20 16 15 17 16 18 16 14 14 11 10 4
49 47 43 43 44 44 44 47 45 45 43 36 33 23 26 26 16 9 4 1 5 14 19 23 13 14 10 12 12 17 16 17 18 10 14 13 14 17 13 10 13 10 4 7
50 42 39 36 39 38 40 46 44 42 41 39 31 26 26 24 13 6 3 2 6 13 21 12 13 11 9 9 11 16 14 14 14 11 11 11 13 15 9 12 9 10 8 11
55 45 36 41 42 40 42 43 43 37 37 36 27 27 21 21 16 10 4 2 9 15 17 14 12 9 11 7 10 12 11 12 12 9 8 9 12 12 9 14 15 13 11 13
60 54 42 36 39 36 38 39 34 34 33 29 26 25 24 22 13 9 5 2 11 11 14 12 12 9 9 6 9 9 9 9 9 6 9 9 11 14 11 11 14 14 13 12
67 60 50 43 45 42 41 36 35 33 32 33 29 22 26 21 12 10 7 2 7 10 13 11 11 9 7 6 8 7 6 7 9 4 7 8 11 12 11 8 10 14 12 12
72 65 57 51 45 43 40 40 40 35 33 25 25 24 26 16 12 11 9 5 6 12 11 11 8 8 6 5 7 7 3 7 8 8 5 9 11 12 10 8 9 15 14 14
74 68 60 54 48 43 44 39 38 35 30 32 22 27 25 18 16 11 10 5 4 11 8 10 6 7 6 4 8 8 4 5 8 7 4 8 10 14 14 13 13 14 13 13
71 69 66 59 51 48 46 43 40 36 33 28 27 28 25 21 17 15 10 7 6 9 8 10 5 6 7 5 7 7 5 4 5 6 6 7 10 11 15 14 15 11 10 15
70 67 68 62 55 51 56 51 44 36 31 26 30 29 29 24 19 13 9 6 7 9 9 7 3 3 5 6 6 6 5 4 5 4 5 9 11 10 10 10 10 13 13 12
74 70 67 61 61 63 53 50 45 38 33 31 28 24 29 23 15 13 11 8 8 8 10 6 3 3 5 6 5 5 3 3 5 5 6 11 14 12 14 17 18 17 15 16
74 75 70 66 63 58 57 51 50 47 42 37 31 25 26 28 24 22 16 9 9 9 7 6 3 5 4 6 4 5 4 3 4 6 7 10 14 13 13 15 17 17 17 18
68 74 74 70 62 64 64 55 50 46 45 37 35 32 26 28 32 24 16 11 11 11 8 8 6 7 7 6 6 5 5 2 3 7 8 9 14 15 15 16 14 14 15 16
65 69 68 68 65 63 69 57 53 53 47 41 35 33 32 33 29 22 21 15 12 11 9 9 10 8 12 9 7 5 5 3 3 7 9 10 11 11 11 12 13 14 14 13
60 62 61 54 63 63 52 50 56 53 48 44 35 33 31 29 30 27 22 17 17 13 13 10 11 10 8 11 9 7 5 5 4 6 9 10 10 9 8 8 10 10 13 14
58 58 64 55 54 65 48 46 60 55 50 43 42 38 36 29 31 27 23 20 17 16 14 13 11 13 9 12 10 10 6 7 8 6 7 9 9 10 10 10 12 14 14 16
52 63 50 61 47 57 61 56 63 59 54 48 43 38 37 31 32 26 23 20 19 16 16 15 14 12 13 9 13 13 11 9 9 10 8 7 10 12 11 11 13 14 14 13
41 52 65 59 52 45 58 59 60 61 59 52 49 43 37 37 35 27 24 22 18 15 18 18 17 14 13 13 14 13 15 12 11 11 11 10 10 10 10 11 13 13 12 12
42 47 59 59 65 50 59 62 61 65 64 56 51 47 44 39 38 34 29 26 24 20 18 21 22 19 14 13 17 15 18 16 14 12 13 13 12 12 11 11 12 11 10 10
Wind_Direction
234 238 241 246 255 262 268 261 250 211 263 247 245 245 225 231 249 240 255 269 289 314 313 307 308 314 303 304 310 303 310 311 310 310 310 311 312 314 315 318 318 323 316 315
237 237 242 249 252 258 239 249 227 249 255 252 246 245 238 249 253 254 272 294 309 313 310 311 302 300 294 306 305 303 310 310 308 309 309 309 315 313 318 325 327 321 321 314
238 245 245 247 239 229 238 249 259 255 241 242 244 244 247 261 258 259 280 294 308 319 319 305 296 290 296 299 298 309 313 311 309 310 307 311 314 310 317 322 323 321 324 322
239 227 219 218 223 235 243 253 260 246 230 238 251 251 247 253 256 267 280 295 316 318 312 315 296 288 286 294 304 315 312 312 309 307 308 312 311 315 325 324 326 327 326 328
234 227 223 220 222 239 248 251 251 243 233 236 238 255 240 248 246 275 288 296 227 261 321 335 316 303 306 300 308 309 311 313 308 306 309 312 313 317 328 321 332 327 334 335
228 231 232 230 241 242 246 240 238 237 234 239 226 250 243 233 242 247 193 222 264 309 343 339 319 307 308 313 307 309 316 312 306 311 313 316 318 325 328 327 331 332 340 333
220 226 228 229 232 232 234 231 233 235 236 241 227 242 232 214 224 209 190 257 318 333 338 334 322 314 306 312 313 315 316 309 309 317 321 325 325 336 333 333 329 334 338 352
229 228 231 230 231 236 238 237 234 231 235 244 230 236 193 218 210 212 194 307 333 322 320 324 306 326 314 314 316 315 313 310 314 318 322 321 340 339 335 332 344 340 351 70
224 226 226 230 232 233 235 232 230 232 236 242 237 222 205 216 221 190 139 254 337 318 324 314 314 328 320 321 310 312 313 305 319 321 324 326 349 348 348 3 1 6 26 100
220 225 220 218 221 211 222 232 216 223 229 234 235 210 207 219 212 205 168 268 336 317 318 317 331 332 329 311 307 313 315 315 326 327 328 341 351 358 5 15 2 23 28 120
209 214 212 208 206 211 210 212 210 221 230 232 229 219 212 211 219 199 180 322 327 308 323 336 334 325 326 297 306 318 318 323 339 340 338 358 10 12 24 23 34 52 86 115
206 205 199 202 207 203 210 217 216 227 226 223 222 206 204 214 202 187 198 324 298 323 338 329 327 316 314 287 308 321 326 339 351 11 21 18 25 21 34 42 50 57 95 107
204 202 199 197 202 203 204 204 210 221 221 216 219 186 207 207 202 209 180 224 288 343 342 322 319 313 309 282 311 318 343 28 26 27 21 18 18 21 34 58 68 75 93 114
202 202 199 196 198 200 201 206 209 215 217 209 213 190 208 200 191 215 170 200 311 330 336 320 320 315 314 275 305 308 323 14 10 20 7 17 25 21 54 82 81 84 89 107
203 202 202 196 199 198 204 211 214 213 212 215 196 202 202 196 205 208 188 192 272 309 321 313 307 319 331 273 297 301 321 11 8 31 31 20 37 36 71 105 92 105 85 95
203 201 203 199 200 201 204 205 213 216 213 213 202 201 209 212 213 203 194 187 257 287 307 310 302 325 338 328 300 302 324 17 25 49 47 28 61 64 88 90 86 84 101 106
199 200 203 199 198 202 208 207 208 212 211 207 206 197 206 208 213 209 189 204 247 256 285 304 300 305 327 338 320 306 327 25 55 65 53 70 81 82 83 77 83 97 89 116
199 201 202 198 196 204 210 209 209 206 209 204 204 195 207 217 221 217 214 217 228 226 267 281 284 274 303 332 341 314 322 26 73 89 97 92 89 84 89 95 93 94 95 92
203 203 203 201 201 208 213 208 211 210 207 204 201 192 196 213 226 228 224 216 221 203 248 258 271 249 275 316 343 333 306 3 90 114 122 109 101 96 94 90 91 91 92 89
203 204 204 205 200 206 212 203 205 211 214 209 208 196 201 208 220 225 226 209 210 209 218 251 246 232 240 291 313 340 313 313 117 133 134 122 109 102 94 91 93 92 92 92
206 204 204 209 199 206 211 206 206 210 210 209 208 205 202 213 223 225 223 202 203 213 214 239 254 239 234 250 284 301 312 265 154 152 151 140 123 111 106 103 100 100 99 96
206 210 209 213 205 206 212 205 205 211 214 209 206 210 213 211 222 220 216 209 205 208 213 235 245 238 226 232 255 259 273 255 212 163 162 160 146 135 120 117 119 110 103 106
203 208 215 208 211 205 210 203 207 209 213 210 208 207 205 200 222 213 219 226 212 203 211 213 228 232 226 218 244 248 233 252 227 198 169 170 164 152 139 132 124 119 111 104
188 204 207 210 205 209 210 205 200 210 212 212 213 202 203 201 201 203 206 211 221 201 210 208 226 236 240 221 231 234 224 237 234 218 194 174 165 159 153 149 142 133 126 118
204 188 207 211 203 212 212 210 202 208 215 215 214 209 209 201 202 204 212 215 219 216 213 213 219 233 235 213 227 229 224 226 238 225 215 193 183 175 171 166 162 157 149 141
215 181 194 206 204 199 211 213 205 205 211 215 215 212 212 217 223 216 216 218 219 219 211 214 219 227 233 213 226 234 229 225 230 228 222 216 203 196 194 193 192 190 185 182
Height
5739 5745 5743 5754 5766 5771 5771 5770 5775 5783 5781 5777 5777 5776 5785 5783 5782 5783 5785 5784 5783 5781 5781 5781 5779 5777 5774 5770 5765 5762 5756 5752 5747 5744 5739 5734 5730 5725 5720 5714 5708 5702 5696 5692
5732 5730 5744 5754 5757 5760 5763 5767 5771 5777 5777 5771 5774 5774 5779 5780 5780 5778 5779 5778 5779 5777 5779 5778 5776 5772 5769 5765 5761 5757 5752 5748 5743 5740 5735 5730 5726 5722 5717 5710 5704 5698 5692 5688
5721 5734 5740 5745 5750 5751 5756 5761 5767 5772 5769 5766 5767 5770 5774 5776 5774 5774 5775 5775 5775 5774 5775 5773 5771 5768 5764 5760 5757 5752 5748 5744 5741 5736 5731 5727 5723 5719 5714 5707 5701 5694 5689 5685
5715 5725 5727 5735 5738 5747 5748 5759 5763 5764 5764 5762 5760 5762 5768 5769 5769 5770 5770 5771 5771 5773 5772 5768 5766 5762 5758 5756 5752 5747 5744 5741 5737 5732 5727 5723 5719 5714 5709 5704 5697 5691 5688 5683
5710 5718 5721 5726 5734 5741 5745 5753 5755 5756 5756 5754 5756 5752 5766 5761 5765 5767 5767 5768 5769 5769 5766 5762 5759 5756 5754 5750 5747 5744 5741 5737 5733 5728 5724 5720 5716 5712 5706 5700 5694 5689 5685 5681
5699 5706 5712 5722 5729 5734 5741 5743 5744 5745 5746 5740 5754 5751 5757 5760 5761 5763 5765 5767 5766 5765 5760 5757 5754 5752 5749 5746 5744 5741 5737 5734 5729 5725 5722 5718 5714 5709 5703 5697 5692 5688 5684 5680
5683 5690 5701 5710 5714 5719 5725 5731 5730 5734 5733 5730 5753 5749 5757 5754 5756 5760 5761 5763 5762 5759 5756 5754 5751 5748 5745 5743 5740 5737 5734 5730 5726 5723 5720 5717 5712 5707 5701 5694 5690 5687 5683 5680
5676 5683 5691 5698 5705 5712 5718 5724 5723 5724 5727 5735 5745 5742 5753 5751 5752 5754 5756 5758 5757 5756 5753 5751 5748 5744 5743 5740 5737 5735 5732 5728 5725 5722 5720 5715 5710 5705 5698 5694 5690 5687 5683 5681
5665 5672 5683 5689 5696 5705 5710 5710 5720 5724 5728 5732 5736 5743 5745 5746 5749 5750 5753 5755 5754 5753 5750 5748 5744 5741 5740 5738 5736 5733 5730 5726 5724 5721 5718 5714 5709 5704 5698 5694 5691 5687 5685 5684
5656 5665 5674 5685 5688 5696 5700 5702 5712 5717 5721 5723 5731 5736 5740 5743 5746 5748 5750 5751 5750 5749 5747 5744 5740 5739 5738 5736 5735 5732 5728 5725 5723 5720 5717 5714 5709 5704 5699 5697 5692 5689 5686 5686
5644 5653 5665 5672 5678 5686 5689 5692 5703 5712 5714 5719 5727 5733 5736 5740 5743 5745 5747 5747 5747 5747 5744 5740 5738 5738 5737 5736 5734 5731 5728 5725 5723 5720 5717 5714 5709 5706 5702 5699 5694 5691 5689 5689
5634 5642 5657 5669 5673 5680 5685 5693 5702 5707 5711 5716 5722 5730 5731 5735 5739 5741 5743 5745 5745 5744 5740 5738 5738 5738 5736 5735 5733 5731 5728 5726 5724 5721 5718 5715 5711 5708 5704 5701 5699 5696 5695 5694
5621 5634 5647 5655 5663 5670 5678 5687 5694 5699 5705 5711 5718 5726 5727 5731 5734 5737 5741 5742 5742 5741 5739 5738 5738 5737 5735 5735 5733 5731 5729 5727 5725 5722 5720 5717 5714 5710 5706 5704 5703 5702 5700 5699
5610 5625 5638 5651 5662 5671 5676 5680 5685 5693 5699 5709 5715 5721 5724 5727 5732 5736 5737 5740 5740 5738 5737 5738 5737 5736 5735 5734 5733 5732 5730 5728 5726 5723 5721 5719 5716 5711 5707 5707 5706 5706 5705 5704
5605 5620 5633 5644 5651 5663 5670 5678 5682 5688 5698 5702 5714 5715 5720 5725 5730 5733 5734 5738 5738 5737 5737 5737 5736 5736 5734 5733 5733 5732 5730 5729 5727 5724 5723 5721 5718 5714 5710 5711 5711 5710 5709 5708
5598 5611 5623 5636 5647 5655 5660 5667 5676 5684 5692 5699 5707 5712 5717 5722 5725 5729 5731 5734 5737 5736 5736 5736 5735 5735 5735 5733 5733 5733 5731 5729 5728 5727 5725 5723 5721 5719 5716 5716 5715 5715 5713 5713
5590 5603 5613 5630 5641 5648 5645 5657 5667 5679 5687 5696 5698 5709 5713 5717 5722 5727 5728 5732 5735 5735 5735 5734 5734 5735 5735 5734 5733 5733 5732 5731 5729 5729 5728 5726 5724 5723 5722 5720 5719 5719 5718 5718
5581 5594 5608 5622 5628 5626 5651 5656 5664 5674 5683 5691 5696 5703 5710 5714 5719 5722 5725 5729 5733 5733 5733 5733 5733 5735 5735 5735 5734 5733 5733 5732 5731 5731 5730 5729 5727 5728 5726 5726 5725 5724 5723 5722
5576 5586 5601 5610 5617 5638 5643 5652 5657 5665 5676 5685 5692 5700 5705 5711 5714 5717 5722 5727 5731 5731 5732 5732 5733 5734 5735 5736 5735 5734 5734 5734 5733 5733 5733 5732 5731 5732 5731 5730 5730 5730 5729 5728
5572 5581 5592 5602 5615 5623 5630 5644 5655 5665 5670 5682 5689 5693 5700 5705 5706 5714 5720 5725 5727 5729 5730 5731 5732 5734 5735 5736 5736 5735 5735 5736 5736 5736 5736 5736 5735 5735 5735 5736 5735 5735 5735 5734
5566 5573 5585 5591 5606 5617 5622 5638 5648 5653 5667 5675 5682 5689 5693 5697 5705 5713 5716 5720 5724 5726 5728 5729 5729 5733 5734 5735 5735 5735 5735 5736 5737 5737 5738 5739 5739 5739 5739 5739 5739 5740 5739 5739
5561 5570 5579 5587 5600 5610 5616 5630 5641 5648 5657 5667 5677 5684 5689 5696 5702 5707 5711 5716 5721 5723 5725 5726 5727 5730 5732 5734 5735 5735 5736 5737 5738 5739 5739 5740 5741 5742 5743 5743 5743 5743 5743 5743
5557 5565 5570 5583 5595 5603 5611 5624 5633 5641 5651 5660 5669 5676 5682 5690 5695 5702 5706 5711 5716 5721 5722 5724 5725 5727 5730 5732 5733 5735 5736 5736 5738 5739 5740 5741 5742 5743 5745 5746 5746 5747 5747 5747
5548 5557 5565 5580 5589 5600 5608 5618 5626 5634 5643 5653 5662 5671 5679 5684 5692 5698 5702 5706 5710 5716 5718 5721 5722 5724 5727 5730 5731 5733 5735 5736 5737 5739 5740 5741 5743 5744 5746 5748 5749 5750 5751 5751
5536 5545 5557 5573 5586 5592 5602 5610 5620 5628 5637 5647 5656 5666 5674 5681 5687 5692 5697 5701 5706 5711 5714 5717 5719 5721 5723 5727 5729 5731 5733 5735 5736 5738 5740 5742 5744 5745 5747 5748 5750 5751 5752 5753
5532 5542 5553 5565 5579 5582 5592 5601 5612 5621 5630 5640 5649 5659 5667 5675 5681 5685 5690 5696 5700 5705 5710 5712 5715 5717 5719 5723 5726 5728 5731 5733 5735 5737 5739 5741 5743 5745 5747 5748 5750 5751 5752 5754